OpenBCM V1.13 (Linux)

Packet Radio Mailbox

DB0FHN

[JN59NK Nuernberg]

 Login: GUEST





  
EA3BEP > KEPLER   02.02.03 02:05l 115 Lines 5919 Bytes #999 (0) @ WW
BID : FA0047EA3BEP
Read: DB0FHN GUEST
Subj: 2 line kepler
Path: DB0FHN<DB0RGB<DB0MRW<DB0HOT<OK0PBX<OK0PHL<OK0PCC<OK0NAG<9A0BBS<HA5OB<
      HA3PG<CT2GWY<ED1ZAC<EA5DVS<EA5RKV<EA3RKU<ED3ZAG
Sent: 030202/0020Z @:ED3ZAG.EAB.ESP.EU #:8905 [C.R.C. Garraf 01] {EANET3.08}
From: EA3BEP@ED3ZAG.EAB.ESP.EU
To  : KEPLER@ALL


AO-7                    
1 07530U 74089B   03030.69771186 -.00000029  00000-0  10000-3 0  1824
2 07530 101.7644  78.6598 0012190 113.9909 246.2442 12.53564047290820
AO-10                   
1 14129U 83058B   03032.40774122 -.00000338  00000-0  10000-3 0  9131
2 14129  25.9116 167.1474 6035120 324.0786   7.3173  2.05869721119710
UO-11                   
1 14781U 84021B   03032.55054600  .00001245  00000-0  18010-3 0   591
2 14781  98.1147   6.3470 0008156 267.2213  92.8065 14.77940593 13728
UO-14                   
1 20437U 90005B   03031.18228598  .00000108  00000-0  56253-4 0  1547
2 20437  98.2749  75.6719 0009862 257.9827 102.0251 14.31231244679869
AO-16                   
1 20439U 90005D   03031.68949433  .00000123  00000-0  61897-4 0  8456
2 20439  98.3209  87.7344 0010099 262.8197  97.1848 14.31463947679975
DO-17                   
1 20440U 90005E   03030.70348613  .00000185  00000-0  84905-4 0  7365
2 20440  98.3391  90.6384 0010397 266.0166  93.9826 14.31741414679900
WO-18                   
1 20441U 90005F   03031.88099978  .00000113  00000-0  58111-4 0    19
2 20441  98.3388  90.9931 0010796 261.3849  98.6110 14.31545959680059
LO-19                   
1 20442U 90005G   03031.23245576  .00000122  00000-0  61262-4 0  9522
2 20442  98.3526  93.3622 0011105 264.0548  95.9368 14.31708513680017
FO-20                   
1 20480U 90013C   03031.84956224  .00000016  00000-0  10455-3 0  4590
2 20480  99.0443 357.9286 0540928  43.9732 320.3131 12.83329264608244
RS-12/13                
1 21089U 91007A   03030.90395336  .00000050  00000-0  37070-4 0  5027
2 21089  82.9212 195.2202 0029479 341.3396  18.6659 13.74402017601222
UO-22                   
1 21575U 91050B   03031.57006708  .00000270  00000-0  10050-3 0  7148
2 21575  98.1391  24.6016 0007150 180.5626 179.5555 14.39140688605690
KO-23                   
1 22077U 92052B   03031.84208514 -.00000037  00000-0  10000-3 0  1510
2 22077  66.0801 162.8477 0015346 278.7045  81.2235 12.86407897492028
AO-27                   
1 22825U 93061C   03031.54676481  .00000121  00000-0  64240-4 0  4759
2 22825  98.2761  62.1606 0007885 318.6909  41.3679 14.28936132487300
IO-26                   
1 22826U 93061D   03030.59968650  .00000132  00000-0  68337-4 0  3051
2 22826  98.2776  62.3679 0008887 321.4412  38.6129 14.29158248487217
KO-25                   
1 22828U 93061F   03032.12442756  .00000089  00000-0  50802-4 0  4159
2 22828  98.2740  64.0814 0009448 294.2896  65.7295 14.29501630455630
POSAT                   
1 22829U 93061G   03032.55666586  .00000183  00000-0  87275-4 0  4391
2 22829  98.2759  65.0884 0009123 292.8371  67.1860 14.29758693487622
RS-15                   
1 23439U 94085A   03030.57956564 -.00000042  00000-0  15355-4 0  6852
2 23439  64.8160  72.1910 0147359 118.9418 242.6373 11.27547750333453
FO-29                   
1 24278U 96046B   03032.45735228 -.00000002  00000-0  36889-4 0  5573
2 24278  98.5334 186.0023 0349918 260.9115  95.2280 13.52870299318997
TO-31                   
1 25396U 98043C   03031.89335883 -.00000043  00000-0  00000+0 0  8191
2 25396  98.6291 109.3410 0002769 163.7970 196.3299 14.23505785237019
GO-32                   
1 25397U 98043D   03030.92388912  .00000059  00000-0  45538-4 0  1207
2 25397  98.6262 107.2983 0001044 161.3479 198.7736 14.22955129236845
SO-33                   
1 25509U 98061B   03030.97888593  .00000885  00000-0  16641-3 0  7684
2 25509  31.4284 258.1524 0357377 140.5710 222.1499 14.27404613222650
PO-34                   
1 25520U 98064B   03031.16592056  .00002390  00000-0  11871-3 0  6343
2 25520  28.4597 346.4165 0005937 155.1805 204.9060 15.13781807234796
ISS (ZARYA)             
1 25544U 98067A   03032.48582176  .00038536  00000-0  46998-3 0  6462
2 25544  51.6377 341.8568 0005465 102.3920  42.8201 15.60072778239838
UO-36                   
1 25693U 99021A   03032.48044062  .00000413  00000-0  79035-4 0  6669
2 25693  64.5591  63.0887 0018798 316.6553  43.3062 14.76366972203735
OO-38                   
1 26063U 00004C   03030.66627978  .00000108  00000-0  57654-4 0  7109
2 26063 100.2157  81.8149 0037230 340.5228  19.4519 14.35472807157671
SO-41                   
1 26545U 00057A   03030.74773658  .00000937  00000-0  14330-3 0  4052
2 26545  64.5592  89.7685 0053341 241.7734 117.8021 14.78927899126432
MO-46                   
1 26548U 00057D   03030.59670760  .00001224  00000-0  17276-3 0  4106
2 26548  64.5580  83.3325 0046526 241.0467 118.5980 14.81200746126561
SO-42                   
1 26549U 00057E   03030.63496342  .00001152  00000-0  17521-3 0  6839
2 26549  64.5559  94.1317 0057700 242.2264 117.2974 14.77869029126348
AO-40                   
1 26609U 00072B   03031.12919724 -.00000153  00000-0  10000-3 0  3071
2 26609   8.0453  67.5507 7939050 138.7490 320.5387  1.25596638 10352
STARSHINE 3             
1 26929U 01043A   03021.14417834  .23075867  62110-5  22771-3 0  7155
2 26929  67.0082  58.0340 0002739 336.9161  23.5083 16.51128562 74338
NO-44                   
1 26931U 01043C   03030.97932790  .00000120  00000-0  79759-4 0  4147
2 26931  67.0485 303.4713 0005172 262.4075  97.6438 14.29104636 69698
NO-45                   
1 26932U 01043D   03030.95971230  .00000110  00000-0  75451-4 0  3871
2 26932  67.0569 303.2311 0005655 240.0992 119.9547 14.29287196 69715
AO-49                   
1 27605U 02058A   03030.88890430  .00000432  00000-0  90592-4 0   428
2 27605  64.5543 253.9631 0029543 117.3033 243.1084 14.71400027  6069
SO-50                   
1 27607U 02058C   03030.72845509  .00000620  00000-0  12443-3 0   405
2 27607  64.5551 254.7574 0038703 119.0658 241.4320 14.69854139  6030
		---------------------------------------
			Email:ea3bep@eresmas.com
			ea3bep@ed3zag.eab.esp.eu
		---------------------------------------
73 - Santi, EA3BEP @ ED3ZAG-2

Mensaje enviado a la hora: 23:57 el 01 Feb 03
Mensaje enviado utilizando WinPack V6.80


Read previous mail | Read next mail


 14.03.2026 12:32:10lGo back Go up